Home > Weather > Saskatoon > Past weeks

Flag for Canada Past Weather in Saskatoon, Saskatchewan, Canada — Yesterday and Last 2 Weeks

Now
73 °F

Scattered clouds.


Feels Like: 77 °F
Forecast: 55 / 65 °F
Wind: 15 mph from Southeast

Location: Saskatoon Weather Station

Current Time: Jun 30, 2016 at 6:54:42 PM

Latest Report: Jun 30, 2016 at 6:00 PM


Visibility: 15 mi

Pressure: 30.16 "Hg

Humidity: 38%

Dew Point: 46 °F

Location of SaskatoonLocation

Past Weather in Saskatoon — Graph

°F

Saskatoon Temperature Yesterday

Maximum temperature yesterday: 77 °F (at 2:00 PM)
Minimum temperature yesterday: 55 °F (at 2:00 AM)
Average temperature yesterday: 66 °F

High & Low Weather Summary for the Past Weeks

 TemperatureHumidityPressure
High84 °F (Jun 23, 3:00 PM)100% (Jun 16, 10:00 AM)30.31 "Hg (Jun 16, 10:00 AM)
Low43 °F (Jun 17, 2:00 AM)26% (Jun 18, 2:00 PM)29.65 "Hg (Jun 25, 4:00 AM)
Average64 °F69%29.99 "Hg
* Reported Jun 15 6:00 PM — Jun 30 6:00 PM, Saskatoon, Weather by CustomWeather, © 2016

Note: Actual official high and low records may vary slightly from our data, if they occured in-between our weather recording intervals... More about our weather records

Advertising

Saskatoon Weather History for the Previous 24 Hours

Scroll right to see more
 ConditionsComfort  
Time TempWeatherWind HumidityBarometerVisibility
6:00 PM
Thu, Jun 30
73 °FScattered clouds.15 mph38%30.16 "Hg15 mi
5:00 PM75 °FScattered clouds.18 mph36%30.17 "Hg15 mi
4:00 PM75 °FScattered clouds.14 mph36%30.19 "Hg15 mi
3:00 PM75 °FPassing clouds.14 mph39%30.22 "Hg15 mi
2:00 PM73 °FPassing clouds.13 mph41%30.23 "Hg15 mi
1:00 PM72 °FScattered clouds.13 mph44%30.25 "Hg15 mi
12:00 PM70 °FScattered clouds.13 mph53%30.27 "Hg15 mi
11:00 AM70 °FScattered clouds.13 mph53%30.27 "Hg15 mi
10:00 AM66 °FPassing clouds.9 mph64%30.28 "Hg15 mi
9:00 AM64 °FPassing clouds.6 mph68%30.29 "Hg15 mi
8:00 AM63 °FScattered clouds.7 mph68%30.29 "Hg15 mi
7:00 AM57 °FPassing clouds.9 mph82%30.30 "Hg15 mi
6:00 AM55 °FSunny.8 mph82%30.30 "Hg15 mi
5:00 AM50 °FSunny.8 mph88%30.30 "Hg15 mi
4:00 AM52 °FClear.9 mph88%30.29 "Hg15 mi
3:00 AM54 °FClear.8 mph82%30.29 "Hg15 mi
2:00 AM55 °FClear.9 mph82%30.27 "Hg15 mi
1:00 AM57 °FClear.9 mph77%30.26 "Hg15 mi
12:00 AM59 °FClear.9 mph77%30.25 "Hg15 mi
11:00 PM
Wed, Jun 29
61 °FPassing clouds.7 mph72%30.25 "Hg15 mi
10:00 PM61 °FPassing clouds.7 mph72%30.23 "Hg15 mi
9:00 PM66 °FPassing clouds.9 mph60%30.22 "Hg15 mi
8:00 PM72 °FPassing clouds.10 mph44%30.21 "Hg15 mi
7:00 PM73 °FScattered clouds.13 mph44%30.20 "Hg15 mi
6:00 PM75 °FScattered clouds.17 mph44%30.20 "Hg15 mi
Weather by CustomWeather, © 2016

See weather overviewHow to use our weather pages